Location: San Vito
(41.8833°N, 12.9833°E)
Time: 16:06:18
(UTC+00:00)

ATLAS 2AS CENTAUR R/B - Pass Details

Date: 17 November 2019
Orbit: 926 x 1286 km, 63.7° (Epoch: 02 December)

Event Time Altitude Azimuth Distance (km) Brightness Sun altitude
Exits shadow 05:19:27 - 320° (NW) 3,824 5.1 -7.8°
Reaches altitude 10° 05:21:25 10° 316° (NW) 3,153 4.6 -7.4°
Maximum altitude 05:28:36 49° 245° (WSW) 1,430 3.1 -6.2°
Drops below altitude 10° 05:35:10 10° 172° (S) 2,886 5.4 -5.0°
Sets 05:37:46 0° 167° (SSE) 3,786 6.1 -4.6°
